Starlink 30446

operational
NORAD ID: 57872 Int'l Des: 2023-144 Owner: SPXS Country: US Constellation: starlink
LEOCIRCULAR

About Starlink 30446

Description loading...

Live Position

Loading 3D Globe...

Upcoming Passes

Altitude History

Altitude vs Time

uPlot chart will show altitude changes over time

Two-Line Element Set

1 57872U 23144J 25308.50539070 .00001182 00000-0 10256-3 0 9999
2 57872 43.0038 234.5699 0001315 252.8535 107.2163 15.02536358118667
Epoch: Nov 4, 2025 • Age: 7 hours

Current Status

Altitude 561.0 km
Velocity 7.59 km/s
Sub-Earth Point 34.22°N, 36.28°E
Launch Date Sep 16, 2023
Age 2.1 years
Type internet

Technical Details

Classification Payload
Mass 730.00 kg
Dry Mass 700.00 kg
Total Mass 730.00 kg
Length 0.30 m
Diameter 4.10 m
Span 29.00 m
Shape Box + pan
Manufacturer SPXS
Bus Type Starlink V2M
Phase Status In Orbit
Owner/State SPXS/US

Large Constellations

Loading constellations...